When you browse on this site, cookies collect data to enhance your experience and personalize the content and advertising you see.
Visit our Privacy Policy to learn more. By continuing to use the site, you agree to this use of cookies and data.
  • In United Kingdom
  • List of Countries
  • For 7 days
  • Water Temperature
  • Weather Map
  • Weather Widgets
  • user-avatar
    Login

    Hourly Weather Juticalpa

    Today, 9 December, Monday

    Time Temperature Precipitation Wind Pressure Humidity
    00:00 +19°C° 0 mm 0 mps 729 mmHg 96%
    01:00 +19°C° 0 mm 0 mps 728 mmHg 96%
    02:00 +19°C° 0 mm 0 mps 728 mmHg 96%
    03:00 +19°C° 0 mm 0 mps 727 mmHg 96%
    04:00 +19°C° 0 mm 0 mps 728 mmHg 96%
    05:00 +19°C° 0 mm 0 mps 728 mmHg 96%
    06:00 +19°C° 0 mm 0 mps 728 mmHg 95%
    07:00 +21°C° 0 mm 0 mps 729 mmHg 87%
    08:00 +23°C° 0 mm 0 mps 729 mmHg 79%
    09:00 +25°C° 0 mm 0 mps 730 mmHg 71%
    10:00 +28°C° 0 mm 1 mps 729 mmHg 67%
    11:00 +29°C° 0 mm 1 mps 729 mmHg 63%
    12:00 +30°C° 0 mm 1 mps 728 mmHg 59%
    13:00 +30°C° 0 mm 1 mps 727 mmHg 58%
    14:00 +30°C° 0 mm 1 mps 727 mmHg 57%
    15:00 +30°C° 0 mm 1 mps 726 mmHg 56%
    16:00 +28°C° 0 mm 1 mps 727 mmHg 64%
    17:00 +26°C° 0 mm 1 mps 727 mmHg 71%
    18:00 +23°C° 0 mm 0 mps 727 mmHg 79%
    19:00 +22°C° 0 mm 0 mps 727 mmHg 83%
    20:00 +23°C° 0 mm 1 mps 728 mmHg 87%
    21:00 +22°C° 0 mm 1 mps 728 mmHg 91%
    22:00 +20°C° 0 mm 0 mps 728 mmHg 93%
    23:00 +20°C° 0 mm 0 mps 728 mmHg 94%

    Tomorrow, 10 December, Tuesday

    Time Temperature Precipitation Wind Pressure Humidity
    00:00 +19°C° 0 mm 0 mps 728 mmHg 96%
    01:00 +19°C° 0 mm 0 mps 727 mmHg 96%
    02:00 +19°C° 0 mm 0 mps 727 mmHg 96%
    03:00 +19°C° 0 mm 0 mps 727 mmHg 96%
    04:00 +19°C° 0 mm 0 mps 728 mmHg 96%
    05:00 +19°C° 0 mm 0 mps 728 mmHg 96%
    06:00 +19°C° 0 mm 0 mps 728 mmHg 95%
    07:00 +21°C° 0 mm 0 mps 729 mmHg 89%
    08:00 +23°C° 0 mm 0 mps 729 mmHg 82%
    09:00 +24°C° 0 mm 0 mps 730 mmHg 76%
    10:00 +28°C° 0 mm 1 mps 729 mmHg 71%
    11:00 +29°C° 0 mm 1 mps 728 mmHg 66%
    12:00 +30°C° 0 mm 2 mps 728 mmHg 60%
    13:00 +30°C° 0.1 mm 2 mps 727 mmHg 60%
    14:00 +30°C° 0.1 mm 2 mps 727 mmHg 59%
    15:00 +31°C° 0.1 mm 2 mps 726 mmHg 58%
    16:00 +29°C° 0.1 mm 1 mps 727 mmHg 67%
    17:00 +27°C° 0.1 mm 1 mps 727 mmHg 76%
    18:00 +25°C° 0.1 mm 1 mps 727 mmHg 85%
    19:00 +24°C° 0 mm 1 mps 728 mmHg 88%
    20:00 +23°C° 0 mm 1 mps 728 mmHg 91%
    21:00 +21°C° 0 mm 0 mps 729 mmHg 94%
    22:00 +20°C° 0 mm 0 mps 728 mmHg 95%
    23:00 +20°C° 0 mm 0 mps 728 mmHg 96%

    Day after tomorrow, 11 December, Wednesday

    Time Temperature Precipitation Wind Pressure Humidity
    00:00 +20°C° 0 mm 0 mps 728 mmHg 97%
    01:00 +20°C° 0 mm 0 mps 728 mmHg 97%
    02:00 +20°C° 0 mm 0 mps 728 mmHg 97%
    03:00 +20°C° 0 mm 0 mps 727 mmHg 97%
    04:00 +20°C° 0 mm 0 mps 728 mmHg 97%
    05:00 +20°C° 0 mm 0 mps 728 mmHg 97%
    06:00 +19°C° 0 mm 0 mps 729 mmHg 97%
    07:00 +21°C° 0 mm 0 mps 729 mmHg 90%
    08:00 +23°C° 0 mm 0 mps 729 mmHg 84%
    09:00 +25°C° 0 mm 0 mps 730 mmHg 77%
    10:00 +28°C° 0.1 mm 1 mps 729 mmHg 70%
    11:00 +30°C° 0.1 mm 1 mps 729 mmHg 64%
    12:00 +31°C° 0.1 mm 2 mps 729 mmHg 57%
    13:00 +30°C° 0.4 mm 2 mps 728 mmHg 61%
    14:00 +30°C° 0.4 mm 2 mps 728 mmHg 65%
    15:00 +29°C° 0.4 mm 2 mps 727 mmHg 69%
    16:00 +27°C° 0.6 mm 2 mps 728 mmHg 76%
    17:00 +26°C° 0.6 mm 1 mps 728 mmHg 84%
    18:00 +22°C° 0.6 mm 0 mps 728 mmHg 91%
    19:00 +21°C° 0 mm 0 mps 728 mmHg 92%
    20:00 +21°C° 0 mm 0 mps 729 mmHg 93%
    21:00 +20°C° 0 mm 0 mps 729 mmHg 94%
    22:00 +20°C° 0 mm 0 mps 729 mmHg 95%
    23:00 +20°C° 0 mm 0 mps 729 mmHg 95%

    12 December, Thursday

    Time Temperature Precipitation Wind Pressure Humidity
    00:00 +20°C° 0 mm 0 mps 729 mmHg 96%
    01:00 +19°C° 0 mm 0 mps 729 mmHg 96%
    02:00 +19°C° 0 mm 0 mps 728 mmHg 96%
    03:00 +19°C° 0 mm 0 mps 728 mmHg 96%
    04:00 +19°C° 0 mm 0 mps 728 mmHg 96%
    05:00 +18°C° 0 mm 0 mps 728 mmHg 96%
    06:00 +18°C° 0 mm 0 mps 728 mmHg 97%
    07:00 +20°C° 0 mm 0 mps 729 mmHg 90%
    08:00 +22°C° 0 mm 0 mps 730 mmHg 84%
    09:00 +25°C° 0 mm 0 mps 730 mmHg 77%
    10:00 +28°C° 0 mm 1 mps 729 mmHg 69%
    11:00 +29°C° 0 mm 1 mps 729 mmHg 61%
    12:00 +31°C° 0 mm 2 mps 728 mmHg 53%
    13:00 +31°C° 0 mm 2 mps 728 mmHg 52%
    14:00 +31°C° 0 mm 1 mps 727 mmHg 52%
    15:00 +31°C° 0 mm 1 mps 727 mmHg 51%
    16:00 +29°C° 0 mm 1 mps 727 mmHg 59%
    17:00 +27°C° 0 mm 1 mps 727 mmHg 68%
    18:00 +25°C° 0 mm 1 mps 727 mmHg 76%
    19:00 +24°C° 0 mm 1 mps 728 mmHg 81%
    20:00 +23°C° 0 mm 1 mps 728 mmHg 85%
    21:00 +23°C° 0 mm 1 mps 728 mmHg 89%
    22:00 +20°C° 0 mm 0 mps 728 mmHg 91%
    23:00 +19°C° 0 mm 0 mps 728 mmHg 93%

    13 December, Friday

    Time Temperature Precipitation Wind Pressure Humidity
    00:00 +19°C° 0 mm 0 mps 728 mmHg 95%
    01:00 +19°C° 0 mm 0 mps 727 mmHg 96%
    02:00 +20°C° 0 mm 1 mps 727 mmHg 96%
    03:00 +20°C° 0 mm 1 mps 727 mmHg 96%
    04:00 +20°C° 0 mm 1 mps 727 mmHg 96%
    05:00 +19°C° 0 mm 1 mps 727 mmHg 96%
    06:00 +19°C° 0 mm 1 mps 727 mmHg 96%
    07:00 +22°C° 0 mm 1 mps 728 mmHg 86%
    08:00 +24°C° 0 mm 1 mps 728 mmHg 76%
    09:00 +26°C° 0 mm 1 mps 729 mmHg 66%
    10:00 +28°C° 0 mm 1 mps 728 mmHg 61%
    11:00 +29°C° 0 mm 1 mps 727 mmHg 55%
    12:00 +31°C° 0 mm 1 mps 727 mmHg 50%
    13:00 +31°C° 0 mm 1 mps 726 mmHg 51%
    14:00 +31°C° 0 mm 1 mps 725 mmHg 52%
    15:00 +31°C° 0 mm 1 mps 725 mmHg 53%
    16:00 +29°C° 0 mm 1 mps 725 mmHg 61%
    17:00 +27°C° 0 mm 1 mps 725 mmHg 69%
    18:00 +23°C° 0 mm 0 mps 726 mmHg 78%
    19:00 +22°C° 0 mm 0 mps 726 mmHg 82%
    20:00 +21°C° 0 mm 0 mps 727 mmHg 86%
    21:00 +21°C° 0 mm 0 mps 727 mmHg 90%
    22:00 +21°C° 0 mm 0 mps 727 mmHg 91%
    23:00 +20°C° 0 mm 0 mps 727 mmHg 91%

    14 December, Saturday

    Time Temperature Precipitation Wind Pressure Humidity
    00:00 +20°C° 0 mm 0 mps 727 mmHg 92%
    01:00 +20°C° 0 mm 0 mps 726 mmHg 93%
    02:00 +19°C° 0 mm 0 mps 726 mmHg 94%
    03:00 +19°C° 0 mm 0 mps 725 mmHg 96%
    04:00 +19°C° 0 mm 0 mps 726 mmHg 96%
    05:00 +19°C° 0 mm 0 mps 726 mmHg 96%
    06:00 +18°C° 0 mm 0 mps 726 mmHg 96%
    07:00 +21°C° 0 mm 0 mps 727 mmHg 88%
    08:00 +23°C° 0 mm 0 mps 727 mmHg 79%
    09:00 +25°C° 0 mm 0 mps 728 mmHg 71%
    10:00 +27°C° 0 mm 0 mps 727 mmHg 65%
    11:00 +30°C° 0 mm 1 mps 727 mmHg 59%
    12:00 +31°C° 0 mm 1 mps 726 mmHg 54%
    13:00 +31°C° 0 mm 1 mps 726 mmHg 54%
    14:00 +31°C° 0 mm 1 mps 725 mmHg 55%
    15:00 +30°C° 0 mm 1 mps 725 mmHg 56%
    16:00 +29°C° 0.1 mm 1 mps 725 mmHg 64%
    17:00 +27°C° 0.1 mm 1 mps 725 mmHg 71%
    18:00 +23°C° 0.1 mm 0 mps 726 mmHg 79%
    19:00 +22°C° 0 mm 0 mps 726 mmHg 81%
    20:00 +22°C° 0 mm 0 mps 727 mmHg 84%
    21:00 +23°C° 0 mm 1 mps 727 mmHg 86%
    22:00 +21°C° 0 mm 0 mps 727 mmHg 88%
    23:00 +20°C° 0 mm 0 mps 727 mmHg 90%
    Show more